Location: Lansingburgh
(42.7845°N, 73.6696°W)
Time: 15:24:12
(UTC+00:00)

Cosmos 1758 Rocket - Pass Details

Date: 24 January 2020
Orbit: 603 x 635 km, 82.5° (Epoch: 26 February)

Event Time Altitude Azimuth Distance (km) Brightness Sun altitude
Rises 23:02:35 0° 195° (SSW) 2,843 7.4 -12.1°
Reaches altitude 10° 23:04:49 10° 198° (SSW) 1,943 6.6 -12.5°
Maximum altitude 23:09:04 62° 280° (W) 681 4.0 -13.3°
Drops below altitude 10° 23:13:21 10° 2° (N) 1,960 6.0 -14.0°
Sets 23:15:37 0° 5° (N) 2,870 6.8 -14.5°
